New York Downtown Manhattan/w, NY

2:13 PM EDT on September 17, 2019 (GMT -0400)
New York Downtown Manhattan/w

Weather History for KJRB - May, 2019

Change the Weather History Date:

Monday, May 13, 2019

  Actual Average (KEWR) Record (KEWR)
Temperature  
Mean Temperature 48 °F -  
Max Temperature 50 °F 72 °F 92 °F (1956)
Min Temperature 45 °F 52 °F 37 °F (1938)
Degree Days  
Heating Degree Days 18    
Moisture  
Dew Point 46 °F    
Average Humidity 92    
Maximum Humidity 100    
Minimum Humidity 86    
Precipitation  
Precipitation 0.48 in - - ()
Sea Level Pressure  
Sea Level Pressure 29.85 in    
Wind  
Wind Speed 11 mph (NE)    
Max Wind Speed 23 mph    
Max Gust Speed 29 mph    
Visibility 7 miles    
Events Rain    
Averages and records for this station are not official NWS values.
T = Trace of Precipitation, MM = Missing Value Source: NWS Daily Summary

Daily Weather History Graph

Daily Weather History Graph

Search for Another Location

Airport or City:

Astronomy

May. 13, 2019 Rise Set
Actual Time 5:41 AM EDT 8:04 PM EDT
Civil Twilight 5:10 AM EDT 8:35 PM EDT
Nautical Twilight 4:32 AM EDT 9:13 PM EDT
Astronomical Twilight 3:49 AM EDT 9:55 PM EDT
Moon 2:10 PM EDT (5/13) 3:00 AM EDT (5/13)
Length of Visible Light 15h 24m
Length of Day
14h 22m
Waxing Gibbous, 68% of the Moon is Illuminated
May 13
Waxing Gibbous
May 18
Full
May 26
Last Quarter
Jun 3
New
Jun 10
First Quarter

Hourly Weather History & Observations

Time (EDT) Temp. Windchill Dew Point Humidity Pressure Visibility Wind Dir Wind Speed Gust Speed Precip Events Conditions
12:56 AM 46.0 °F 40.6 °F 43.0 °F 89% 29.92 in 8.0 mi NE 11.5 mph - N/A   Overcast
1:56 AM 46.0 °F 40.6 °F 43.0 °F 89% 29.90 in 7.0 mi NNE 11.5 mph - N/A   Overcast
2:56 AM 45.0 °F 40.1 °F 43.0 °F 93% 29.89 in 10.0 mi NNE 9.2 mph 16.1 mph N/A   Overcast
3:56 AM 45.0 °F 40.1 °F 43.0 °F 93% 29.88 in 7.0 mi NNE 9.2 mph - N/A   Overcast
4:56 AM 45.0 °F 40.1 °F 43.0 °F 93% 29.87 in 6.0 mi NNE 9.2 mph - N/A   Overcast
5:56 AM 46.0 °F 41.0 °F 44.1 °F 93% 29.88 in 2.5 mi NNE 10.4 mph - N/A   Overcast
6:16 AM 46.4 °F 41.1 °F 44.6 °F 93% 29.88 in 3.0 mi NE 11.5 mph - N/A   Overcast
6:56 AM 46.9 °F - 45.0 °F 93% 29.91 in 4.0 mi NNE 9.2 mph - N/A   Overcast
7:56 AM 46.9 °F - 45.0 °F 93% 29.90 in 4.0 mi NE 10.4 mph - 0.00 in Rain Light Rain
8:56 AM 48.0 °F - 46.0 °F 93% 29.90 in 9.0 mi ENE 16.1 mph - 0.02 in Rain Light Rain
9:56 AM 48.0 °F - 46.0 °F 93% 29.88 in 10.0 mi ENE 13.8 mph - 0.03 in Rain Light Rain
10:22 AM 48.2 °F - 46.4 °F 93% 29.89 in 10.0 mi NE 11.5 mph 20.7 mph 0.00 in Rain Light Rain
10:56 AM 48.0 °F - 46.0 °F 93% 29.88 in 10.0 mi ENE 13.8 mph 21.9 mph 0.01 in Rain Light Rain
11:56 AM 48.9 °F - 46.0 °F 90% 29.86 in 10.0 mi NE 15.0 mph - 0.00 in   Overcast
12:56 PM 50.0 °F - 46.0 °F 86% 29.84 in 10.0 mi NE 6.9 mph - 0.01 in Rain Light Rain
1:36 PM 50.0 °F - 46.4 °F 87% 29.85 in 7.0 mi Variable 6.9 mph - 0.02 in Rain Light Rain
1:56 PM 50.0 °F - 46.9 °F 89% 29.83 in 4.0 mi ENE 10.4 mph - 0.05 in Rain Light Rain
2:04 PM 48.2 °F - 46.4 °F 93% 29.83 in 3.0 mi ENE 9.2 mph - 0.01 in Rain Light Rain
2:26 PM 48.2 °F - 46.4 °F 93% 29.82 in 6.0 mi ENE 12.7 mph 17.3 mph 0.04 in Rain Light Rain
2:38 PM 50.0 °F - 48.2 °F 94% 29.81 in 7.0 mi NE 10.4 mph - 0.05 in Rain Light Rain
2:56 PM 48.9 °F - 46.9 °F 93% 29.81 in 10.0 mi NE 9.2 mph - 0.05 in Rain Light Rain
3:24 PM 50.0 °F - 46.4 °F 87% 29.81 in 10.0 mi ENE 11.5 mph - 0.01 in Rain Light Rain
3:52 PM 48.2 °F - 46.4 °F 93% 29.79 in 10.0 mi NE 12.7 mph - 0.01 in Rain Light Rain
3:56 PM 48.9 °F - 46.0 °F 90% 29.80 in 10.0 mi NNE 10.4 mph 18.4 mph 0.01 in Rain Light Rain
4:22 PM 48.2 °F - 46.4 °F 93% 29.84 in 7.0 mi Variable 3.5 mph - 0.02 in Rain Light Rain
4:51 PM 48.2 °F - 46.4 °F 93% 29.85 in 2.5 mi West 8.1 mph - 0.08 in Rain Light Rain
4:52 PM 48.9 °F - 46.9 °F 93% 29.86 in 2.0 mi West 8.1 mph - 0.09 in Rain Light Rain
5:00 PM 48.2 °F - 46.4 °F 93% 29.86 in 3.0 mi West 4.6 mph - 0.02 in Rain Light Rain
5:13 PM 48.2 °F - 48.2 °F 100% 29.86 in 3.0 mi Variable 3.5 mph - 0.03 in Rain Light Rain
5:33 PM 48.2 °F - 46.4 °F 93% 29.84 in 4.0 mi NE 10.4 mph - 0.06 in Rain Light Rain
5:45 PM 48.2 °F - 48.2 °F 100% 29.83 in 2.5 mi NE 10.4 mph - 0.09 in Rain Rain
5:56 PM 48.9 °F - 46.9 °F 93% 29.84 in 3.0 mi NE 10.4 mph - 0.12 in Rain Light Rain
6:56 PM 48.9 °F - 46.9 °F 93% 29.82 in 10.0 mi NE 16.1 mph 23.0 mph 0.09 in   Overcast
7:56 PM 48.9 °F - 46.0 °F 90% 29.84 in 10.0 mi NNE 12.7 mph - N/A   Overcast
8:56 PM 48.0 °F - 45.0 °F 89% 29.81 in 10.0 mi NE 23.0 mph 28.8 mph 0.00 in Rain Light Rain
9:56 PM 46.9 °F - 45.0 °F 93% 29.86 in 10.0 mi ENE 9.2 mph - 0.00 in   Overcast
10:51 PM 48.2 °F - 44.6 °F 87% 29.86 in 10.0 mi NE 10.4 mph - N/A   Overcast
10:56 PM 48.0 °F - 44.1 °F 86% 29.86 in 10.0 mi ENE 9.2 mph - N/A   Overcast
11:15 PM 48.2 °F - 44.6 °F 87% 29.85 in 10.0 mi East 8.1 mph - N/A   Overcast
11:51 PM 48.2 °F - 44.6 °F 87% 29.85 in 10.0 mi ENE 10.4 mph - N/A   Overcast
11:56 PM 48.0 °F - 44.1 °F 86% 29.85 in 10.0 mi ENE 8.1 mph - N/A   Overcast